一网星座-0058星 (ONEWEB-0058 )

导读 | 豆包AI

ONEWEB-0058是英国OneWeb星座项目中的一颗低轨通信卫星,于2020年2月6日发射升空,属于OneWeb一期星座组网卫星,运行在1200公里高度近地轨道。OneWeb星座旨在为全球偏远及基础设施薄弱区域提供高速低延迟互联网接入,服务航空海运、应急通信等场景,ONEWEB-0058为缩小全球数字鸿沟贡献组网力量。

Basic Information
目录编号:
45161
目录名称:
ONEWEB-0058
国际标识:
2020-008AG
轨道中心:
EARTH
卫星名称:
一网星座-0058星
卫星全名:
一网星座-0058星 (ONEWEB-0058 )
卫星状态:
在轨 (已飞行2228 天)
发射日期:
2020-02-06 UTC
国别 :
英国 (GB)
星等 :
--
Orbit Information
数据来源 国际轨道数据 AOE轨道数据
星历时间 2026-03-14T05:59:47+0800
6小时前
查看轨道信息
2026-03-14T07:00:00+0800
5小时前
查看轨道信息
半长轴 7599.839km 7599.833km
偏心率 0.0002057 0.0002064
轨道倾角 87.878° 87.879°
近地点辐角 89.786° 88.665°
升交点赤经 55.246° 55.238°
平近点角 270.350° 108.611°
近地点 1220.138km 1220.127km
远地点 1223.266km 1223.265km
周期 109.892分钟 109.892分钟
每日圈数 13.103769 13.103784
Detailed Information
平衡模式:
三轴稳定
覆盖范围:
全球
运营商:
一网卫星公司
运营商所在国:
英国
制造商(研发单位):
一网卫星公司
制造商所在国:
英国
使用方式:
暂无
Satellite Introduction
OneWeb卫星网络由648颗重约125公斤的微型卫星组成,运行在1200公里的轨道上。 每颗卫星都能够提供至少每秒8千兆位的吞吐量,以使用其高吞吐量的Ku频段有效载荷为家庭和移动平台提供互联网接入。该卫星仍在工作。
2D Orbit Map
3D Orbit Map
Orbit Altitude Analysis Chart
Orbit Inclination Analysis Chart
Orbit Comprehensive Analysis Chart
View Comprehensive Chart